This is the latest recevied weather packets stored in our database for station/object W8DRH-13. If no packets are shown the sender has not sent any weather packets the latest 10 day(s).
| Time | Temp. | Humidity | Pressure | Rain* | Wind** | Luminosity | Snow |
|---|---|---|---|---|---|---|---|
| 1777737069 | 6.11° C | 77% | 1015.4 hPa | 0 mm | - | 314 W/m² | - |
| 1777736764 | 6.11° C | 76% | 1015.4 hPa | 0 mm | - | 246 W/m² | - |
| 1777736136 | 5.56° C | 78% | 1015.5 hPa | 0 mm | - | 183 W/m² | - |
| 1777735834 | 5.56° C | 79% | 1015.4 hPa | 0 mm | - | 173 W/m² | - |
| 1777735531 | 5° C | 79% | 1015.7 hPa | 0 mm | - | 166 W/m² | - |
| 1777735228 | 5° C | 80% | 1015.5 hPa | 0 mm | - | 166 W/m² | - |
| 1777734925 | 5° C | 80% | 1015.5 hPa | 0 mm | - | 165 W/m² | - |
| 1777734622 | 5° C | 81% | 1015.4 hPa | 0 mm | - | 180 W/m² | - |
| 1777734320 | 5° C | 82% | 1015.3 hPa | 0 mm | - | 174 W/m² | - |
| 1777734016 | 5° C | 82% | 1015.5 hPa | 0 mm | - | 107 W/m² | - |
| 1777733712 | 5° C | 81% | 1015.3 hPa | 0 mm | - | 77 W/m² | - |
| 1777733409 | 5° C | 81% | 1015.4 hPa | 0 mm | - | 88 W/m² | - |
| 1777733105 | 5° C | 82% | 1015.5 hPa | 0 mm | - | 80 W/m² | - |
| 1777732802 | 5° C | 80% | 1015.3 hPa | 0 mm | - | 63 W/m² | - |
| 1777732499 | 5.56° C | 80% | 1015.5 hPa | 0 mm | - | 80 W/m² | - |
| 1777732197 | 5.56° C | 80% | 1015.4 hPa | 0 mm | - | 154 W/m² | - |
| 1777731894 | 5.56° C | 79% | 1015.3 hPa | 0 mm | - | 303 W/m² | - |
| 1777731590 | 5.56° C | 80% | 1015.1 hPa | 0 mm | - | 777 W/m² | - |
| 1777731288 | 5.56° C | 81% | 1015.3 hPa | 0 mm | - | 220 W/m² | - |
| 1777730985 | 5.56° C | 82% | 1015.4 hPa | 0 mm | - | 260 W/m² | - |
| 1777730683 | 5° C | 82% | 1015.1 hPa | 0 mm | - | 332 W/m² | - |
| 1777730379 | 5° C | 83% | 1015.3 hPa | 0 mm | - | 652 W/m² | - |
| 1777730075 | 3.89° C | 85% | 1015.3 hPa | 0 mm | - | 592 W/m² | - |
| 1777729772 | 3.89° C | 86% | 1015.4 hPa | 0 mm | - | 153 W/m² | - |
| 1777729469 | 4.44° C | 85% | 1015.2 hPa | 0 mm | - | 89 W/m² | - |
* Rain latest hour (hover to see other rain measurements)
** Current wind speed in m/s (hover to see current wind gust speed)